Tracking 35334 objects as of 13-Sep-2026
HD Live streaming from Space Station
objects crossing your sky now

COSMOS 1590 DEB


COSMOS 1590 DEB is no longer on orbit


NORAD ID: 15228
Int'l Code: 1984-087C
Launch date: August 16, 1984
Source: Commonwealth of Independent States (former USSR) (CIS)
Launch site: PLESETSK MISSILE AND SPACE COMPLEX (PKMTR)
Decay date: 1984-09-12

Note: This is SATELLITE DEBRIS
Your satellite tracking list
Your tracking list is empty




NASA's NSSDC Master Catalog

Two Line Element Set (TLE):
1 15228U 84087  C 84255.96651873  .24416232 -10257-4 +46335-2 0  9991
2 15228 082.3329 108.9767 0038286 265.8218 094.2267 16.29639391004243
Source of the keplerian elements: AFSPC